[[{"header":{"parameterUnit":"m.s-1","parameterCategory":1,"la1":30.2992,"la2":30.254,"lo1":-89.0895,"lo2":-89.0443,"dy":0.0025,"dx":0.0025,"nx":19,"ny":19,"refTime":"2026-05-09T03:00:00:Z","depth":0,"parameterNumber":2,"parameterNumberName":"U-component_of_WINDS"},"data":[0,0,0,-0.8806,-0.8808,-0.8899,-0.89,-0.901,-0.9011,0,0,0,0,0,0,0,0,0,0,0,-0.8774,-0.8774,-0.8806,-0.8808,-0.8899,-0.89,-0.901,-0.9011,0,0,0,0,0,0,0,0,0,0,0,-0.8774,-0.8774,-0.8775,-0.8809,-0.8899,-0.89,-0.901,-0.8944,0,0,0,0,0,0,0,0,0,0,-0.8856,-0.882,-0.8774,-0.8775,-0.8809,-0.8899,-0.89,-0.8941,-0.8948,-0.8965,0,-0.8978,0,-0.8996,-0.9018,-0.9018,0,0,0,-0.8813,-0.8814,-0.8844,-0.8775,-0.881,-0.8899,-0.886,-0.8945,-0.8953,-0.8975,-0.898,-0.8984,-0.8998,-0.9018,-0.9019,-0.9101,-0.9101,0,0,-0.8808,-0.8788,-0.8838,-0.8849,-0.8832,-0.8857,-0.8862,-0.895,-0.8954,-0.898,-0.8987,-0.9,-0.9019,-0.902,-0.9101,-0.9101,0,0,0,-0.8791,-0.8784,-0.8811,-0.8844,-0.8861,-0.8859,-0.8866,-0.895,-0.8961,-0.8988,-0.9001,-0.902,-0.9021,-0.9101,-0.9101,-0.9088,0,0,0,-0.8788,-0.8774,-0.8809,-0.8797,-0.8859,-0.8906,-0.8864,-0.8955,-0.8965,-0.9,-0.902,-0.9022,-0.91,-0.9101,-0.9088,-0.9086,0,0,0,-0.877,-0.8772,-0.8782,-0.8796,-0.8834,-0.8905,-0.8921,-0.8958,-0.8973,-0.9018,-0.9022,-0.91,-0.9101,-0.9088,-0.9086,-0.9102,0,0,0,-0.8745,-0.8771,-0.8782,-0.8815,-0.8833,-0.8896,-0.8921,-0.8969,-0.9006,-0.902,-0.91,-0.9101,-0.9088,-0.9086,-0.9102,-0.9112,-0.9113,0,0,-0.8766,-0.8772,-0.8794,-0.8807,-0.8862,-0.8884,-0.8938,-0.8992,-0.9017,-0.9072,-0.9074,-0.9088,-0.9086,-0.9102,-0.913,-0.9132,0,0,0,-0.8793,-0.8809,-0.8828,-0.8861,-0.8902,-0.8938,-0.8985,-0.9006,-0.9053,-0.904,-0.9098,-0.9098,-0.9108,-0.9114,-0.9115,-0.9125,-0.9102,-0.9102,-0.9102,-0.8794,-0.8822,-0.8859,-0.8898,-0.8931,-0.8979,-0.9009,-0.9045,-0.9065,-0.9078,-0.9095,-0.9108,-0.9114,-0.9115,-0.9126,-0.9102,-0.9102,-0.9102,-0.9102,-0.8827,-0.8853,-0.8878,-0.8923,-0.8953,-0.8993,-0.9041,-0.9054,-0.9096,-0.9098,-0.9109,-0.9109,-0.9116,-0.9127,-0.9101,-0.9101,-0.9101,-0.9101,-0.9101,-0.8831,-0.8848,-0.8871,-0.8922,-0.8959,-0.8999,-0.9037,-0.9064,-0.9089,-0.9099,-0.9121,-0.9121,-0.9125,-0.9107,-0.9107,-0.9107,-0.9108,-0.9108,-0.9108,-0.8826,-0.8852,-0.8881,-0.8926,-0.8951,-0.8988,-0.9037,-0.9063,-0.9099,-0.9116,-0.9116,-0.9135,-0.9111,-0.9104,-0.9109,-0.9108,-0.9108,-0.9108,-0.9108,-0.8851,-0.8849,-0.8893,-0.8918,-0.8974,-0.9009,-0.9042,-0.9093,-0.9118,-0.9137,-0.9154,-0.9131,-0.914,-0.9139,-0.9135,-0.9146,-0.9146,-0.9146,-0.9146,-0.8855,-0.8861,-0.8912,-0.895,-0.8991,-0.9025,-0.9076,-0.9114,-0.9155,-0.9173,-0.9175,-0.917,-0.9168,-0.9179,-0.9177,-0.9173,-0.9195,-0.9195,-0.9195,-0.8872,-0.8883,-0.8921,-0.8958,-0.9004,-0.9043,-0.9092,-0.9136,-0.9182,-0.9198,-0.9188,-0.9186,-0.9179,-0.9175,-0.9191,-0.9188,-0.9181,0,0]},{"header":{"parameterUnit":"m.s-1","parameterCategory":1,"la1":30.2992,"la2":30.254,"lo1":-89.0895,"lo2":-89.0443,"dy":0.0025,"dx":0.0025,"nx":19,"ny":19,"refTime":"2026-05-09T03:00:00:Z","depth":0,"parameterNumber":3,"parameterNumberName":"V-component_of_WINDS"},"data":[0,0,0,1.312,1.3122,1.3211,1.3211,1.3351,1.3352,0,0,0,0,0,0,0,0,0,0,0,1.311,1.3112,1.3119,1.3122,1.3211,1.3211,1.3351,1.3352,0,0,0,0,0,0,0,0,0,0,0,1.3109,1.3111,1.3113,1.3123,1.3211,1.3211,1.335,1.3274,0,0,0,0,0,0,0,0,0,0,1.3183,1.3191,1.3111,1.3113,1.3123,1.3211,1.3211,1.327,1.3278,1.3322,0,1.3366,0,1.3362,1.3363,1.3364,0,0,0,1.3109,1.3184,1.3192,1.3114,1.3124,1.3211,1.3167,1.3274,1.3284,1.3334,1.3368,1.3373,1.3364,1.3365,1.3365,1.3664,1.3666,0,0,1.3104,1.3135,1.3186,1.32,1.3189,1.3164,1.317,1.328,1.3319,1.3369,1.3375,1.3367,1.3366,1.3367,1.3662,1.3664,0,0,0,1.3099,1.3132,1.3138,1.3195,1.3209,1.3167,1.3174,1.3314,1.3313,1.3377,1.3368,1.3367,1.3369,1.366,1.3663,1.3795,0,0,0,1.3095,1.3129,1.3136,1.3156,1.3207,1.3263,1.3206,1.3305,1.3317,1.3367,1.3367,1.337,1.3657,1.3661,1.3786,1.3853,0,0,0,1.3099,1.3129,1.3148,1.3157,1.3197,1.326,1.3265,1.3307,1.3312,1.3364,1.3371,1.3656,1.3661,1.3779,1.384,1.3944,0,0,0,1.3111,1.3262,1.3151,1.3315,1.3196,1.334,1.3264,1.3369,1.3429,1.3367,1.3658,1.3662,1.3776,1.3833,1.3936,1.4039,1.4084,0,0,1.3319,1.3288,1.3383,1.3285,1.3458,1.3324,1.3515,1.3539,1.3515,1.3615,1.3622,1.3789,1.3839,1.3942,1.4317,1.4353,0,0,0,1.3459,1.3528,1.3567,1.3626,1.3649,1.3675,1.3667,1.3676,1.376,1.3573,1.385,1.388,1.3938,1.3987,1.4017,1.4068,1.3685,1.3684,1.3684,1.3801,1.3762,1.3916,1.3889,1.3947,1.3937,1.3981,1.3992,1.3934,1.4,1.4032,1.4264,1.4321,1.4344,1.4397,1.4079,1.4079,1.408,1.408,1.4105,1.4199,1.4118,1.4241,1.4199,1.43,1.4296,1.4252,1.4341,1.4237,1.4286,1.4181,1.4385,1.4429,1.409,1.4088,1.4087,1.4086,1.4085,1.4329,1.4367,1.4375,1.4457,1.4524,1.4489,1.4579,1.4535,1.4495,1.4544,1.4574,1.4572,1.4568,1.456,1.4561,1.4562,1.4562,1.4563,1.4563,1.4559,1.4564,1.4646,1.4683,1.4715,1.4753,1.4743,1.4774,1.4797,1.4759,1.4759,1.4698,1.441,1.4342,1.4576,1.4574,1.4572,1.4571,1.457,1.4892,1.4809,1.4936,1.4969,1.5009,1.508,1.5021,1.5088,1.5107,1.5153,1.5079,1.4872,1.4838,1.4813,1.4757,1.5085,1.5085,1.5085,1.5085,1.5084,1.5061,1.5182,1.5238,1.5287,1.5247,1.5392,1.5386,1.5366,1.5376,1.532,1.524,1.5216,1.5196,1.5163,1.511,1.552,1.5521,1.5521,1.5288,1.5268,1.5401,1.5381,1.5408,1.5433,1.5569,1.5637,1.5596,1.5538,1.5383,1.5365,1.5234,1.5192,1.5137,1.5086,1.4988,0,0]}]]